• In Germany
  • List of Countries
  • For 7 days
  • Water Temperature
  • Satellite Maps
  • Weather Map
  • Weather Widgets
  • user-avatar
    Login

    Hourly Weather Biatris

    Today, 15 November, Thursday

    Time Temperature Precipitation Wind Pressure Humidity
    00:00 +18°C° 0 mm 2 mps 653 mmHg 35%
    01:00 +17°C° 0 mm 2 mps 652 mmHg 39%
    02:00 +16°C° 0 mm 2 mps 652 mmHg 43%
    03:00 +16°C° 0 mm 2 mps 652 mmHg 47%
    04:00 +15°C° 0 mm 2 mps 652 mmHg 51%
    05:00 +15°C° 0 mm 1 mps 652 mmHg 55%
    06:00 +18°C° 0 mm 2 mps 653 mmHg 48%
    07:00 +21°C° 0 mm 2 mps 654 mmHg 40%
    08:00 +25°C° 0 mm 2 mps 655 mmHg 32%
    09:00 +27°C° 0 mm 2 mps 655 mmHg 26%
    10:00 +30°C° 0 mm 2 mps 656 mmHg 20%
    11:00 +34°C° 0 mm 2 mps 656 mmHg 13%
    12:00 +34°C° 0 mm 2 mps 656 mmHg 12%
    13:00 +35°C° 0 mm 2 mps 655 mmHg 10%
    14:00 +36°C° 0 mm 2 mps 655 mmHg 9%
    15:00 +35°C° 0 mm 3 mps 654 mmHg 9%
    16:00 +35°C° 0 mm 3 mps 654 mmHg 9%
    17:00 +34°C° 0 mm 4 mps 654 mmHg 10%
    18:00 +30°C° 0 mm 4 mps 653 mmHg 13%
    19:00 +27°C° 0 mm 3 mps 653 mmHg 17%
    20:00 +25°C° 0 mm 3 mps 653 mmHg 20%
    21:00 +24°C° 0 mm 3 mps 654 mmHg 25%
    22:00 +22°C° 0 mm 3 mps 654 mmHg 30%
    23:00 +21°C° 0 mm 3 mps 654 mmHg 34%

    Tomorrow, 16 November, Friday

    Time Temperature Precipitation Wind Pressure Humidity
    00:00 +20°C° 0 mm 2 mps 654 mmHg 39%
    01:00 +20°C° 0 mm 2 mps 653 mmHg 44%
    02:00 +19°C° 0 mm 2 mps 653 mmHg 48%
    03:00 +18°C° 0 mm 2 mps 653 mmHg 51%
    04:00 +18°C° 0 mm 2 mps 653 mmHg 54%
    05:00 +17°C° 0 mm 2 mps 653 mmHg 57%
    06:00 +20°C° 0 mm 2 mps 654 mmHg 50%
    07:00 +24°C° 0 mm 3 mps 655 mmHg 44%
    08:00 +27°C° 0 mm 3 mps 656 mmHg 37%
    09:00 +29°C° 0 mm 3 mps 656 mmHg 30%
    10:00 +32°C° 0 mm 2 mps 657 mmHg 24%
    11:00 +36°C° 0 mm 2 mps 657 mmHg 17%
    12:00 +36°C° 0 mm 2 mps 657 mmHg 16%
    13:00 +37°C° 0 mm 2 mps 656 mmHg 14%
    14:00 +38°C° 0 mm 2 mps 655 mmHg 13%
    15:00 +37°C° 0 mm 2 mps 655 mmHg 14%
    16:00 +36°C° 0 mm 3 mps 654 mmHg 15%
    17:00 +34°C° 0 mm 4 mps 654 mmHg 16%
    18:00 +31°C° 0 mm 3 mps 654 mmHg 20%
    19:00 +29°C° 0 mm 3 mps 654 mmHg 24%
    20:00 +27°C° 0 mm 3 mps 654 mmHg 28%
    21:00 +26°C° 0 mm 3 mps 655 mmHg 31%
    22:00 +25°C° 0 mm 3 mps 655 mmHg 33%
    23:00 +24°C° 0 mm 2 mps 655 mmHg 36%

    Day after tomorrow, 17 November, Saturday

    Time Temperature Precipitation Wind Pressure Humidity
    00:00 +24°C° 0 mm 3 mps 655 mmHg 42%
    01:00 +22°C° 0 mm 3 mps 654 mmHg 47%
    02:00 +21°C° 0 mm 3 mps 654 mmHg 53%
    03:00 +21°C° 0 mm 3 mps 654 mmHg 58%
    04:00 +20°C° 0 mm 3 mps 654 mmHg 64%
    05:00 +20°C° 0 mm 3 mps 654 mmHg 69%
    06:00 +22°C° 0 mm 3 mps 654 mmHg 61%
    07:00 +25°C° 0 mm 4 mps 655 mmHg 53%
    08:00 +27°C° 0 mm 4 mps 656 mmHg 44%
    09:00 +30°C° 0 mm 3 mps 656 mmHg 37%
    10:00 +33°C° 0 mm 3 mps 657 mmHg 29%
    11:00 +36°C° 0 mm 2 mps 657 mmHg 22%
    12:00 +35°C° 0 mm 2 mps 656 mmHg 22%
    13:00 +35°C° 0 mm 2 mps 655 mmHg 23%
    14:00 +33°C° 0 mm 1 mps 654 mmHg 23%
    15:00 +32°C° 0 mm 1 mps 654 mmHg 24%
    16:00 +32°C° 0 mm 1 mps 653 mmHg 26%
    17:00 +31°C° 0 mm 1 mps 653 mmHg 27%
    18:00 +30°C° 0 mm 2 mps 653 mmHg 30%
    19:00 +29°C° 0 mm 2 mps 653 mmHg 34%
    20:00 +27°C° 0 mm 3 mps 654 mmHg 38%
    21:00 +26°C° 0 mm 3 mps 654 mmHg 40%
    22:00 +26°C° 0 mm 3 mps 654 mmHg 43%
    23:00 +25°C° 0 mm 3 mps 654 mmHg 45%

    18 November, Sunday

    Time Temperature Precipitation Wind Pressure Humidity
    00:00 +24°C° 0 mm 3 mps 653 mmHg 47%
    01:00 +24°C° 0 mm 3 mps 653 mmHg 48%
    02:00 +22°C° 0 mm 3 mps 652 mmHg 50%
    03:00 +22°C° 0 mm 3 mps 653 mmHg 54%
    04:00 +21°C° 0 mm 3 mps 653 mmHg 59%
    05:00 +21°C° 0 mm 3 mps 653 mmHg 64%
    06:00 +23°C° 0 mm 4 mps 654 mmHg 57%
    07:00 +26°C° 0 mm 4 mps 655 mmHg 50%
    08:00 +28°C° 0 mm 4 mps 656 mmHg 43%
    09:00 +30°C° 0 mm 3 mps 656 mmHg 38%
    10:00 +31°C° 0 mm 2 mps 656 mmHg 33%
    11:00 +32°C° 0 mm 1 mps 656 mmHg 28%
    12:00 +32°C° 0 mm 2 mps 655 mmHg 28%
    13:00 +32°C° 0 mm 2 mps 654 mmHg 28%
    14:00 +32°C° 0 mm 2 mps 654 mmHg 28%
    15:00 +32°C° 0 mm 2 mps 653 mmHg 28%
    16:00 +32°C° 0 mm 2 mps 653 mmHg 28%
    17:00 +31°C° 0 mm 2 mps 653 mmHg 28%
    18:00 +29°C° 0 mm 2 mps 653 mmHg 35%
    19:00 +27°C° 0 mm 2 mps 653 mmHg 41%
    20:00 +25°C° 0 mm 3 mps 653 mmHg 47%
    21:00 +25°C° 0 mm 3 mps 653 mmHg 50%
    22:00 +24°C° 0 mm 3 mps 653 mmHg 53%
    23:00 +24°C° 0 mm 3 mps 654 mmHg 57%

    19 November, Monday

    Time Temperature Precipitation Wind Pressure Humidity
    00:00 +22°C° 0 mm 3 mps 653 mmHg 58%
    01:00 +21°C° 0 mm 3 mps 653 mmHg 60%
    02:00 +21°C° 0 mm 2 mps 653 mmHg 62%
    03:00 +20°C° 0 mm 2 mps 653 mmHg 65%
    04:00 +20°C° 0 mm 2 mps 653 mmHg 68%
    05:00 +19°C° 0 mm 3 mps 653 mmHg 71%
    06:00 +22°C° 0 mm 3 mps 654 mmHg 62%
    07:00 +25°C° 0 mm 3 mps 655 mmHg 53%
    08:00 +28°C° 0 mm 3 mps 656 mmHg 45%
    09:00 +29°C° 0 mm 3 mps 656 mmHg 38%
    10:00 +31°C° 0 mm 3 mps 656 mmHg 32%
    11:00 +33°C° 0 mm 3 mps 656 mmHg 26%
    12:00 +34°C° 0 mm 3 mps 655 mmHg 26%
    13:00 +34°C° 0 mm 3 mps 655 mmHg 25%
    14:00 +34°C° 0 mm 3 mps 654 mmHg 24%
    15:00 +33°C° 0 mm 3 mps 654 mmHg 24%
    16:00 +33°C° 0 mm 3 mps 653 mmHg 25%
    17:00 +31°C° 0 mm 3 mps 653 mmHg 26%
    18:00 +30°C° 0 mm 3 mps 653 mmHg 30%
    19:00 +28°C° 0 mm 3 mps 654 mmHg 34%
    20:00 +27°C° 0 mm 3 mps 654 mmHg 38%
    21:00 +25°C° 0 mm 3 mps 654 mmHg 44%
    22:00 +24°C° 0 mm 3 mps 654 mmHg 50%
    23:00 +22°C° 0 mm 3 mps 654 mmHg 56%

    20 November, Tuesday

    Time Temperature Precipitation Wind Pressure Humidity
    00:00 +22°C° 0 mm 3 mps 653 mmHg 60%
    01:00 +21°C° 0 mm 3 mps 653 mmHg 64%
    02:00 +20°C° 0 mm 3 mps 652 mmHg 68%
    03:00 +20°C° 0 mm 2 mps 652 mmHg 71%
    04:00 +19°C° 0 mm 2 mps 652 mmHg 75%
    05:00 +19°C° 0 mm 2 mps 652 mmHg 78%
    06:00 +21°C° 0 mm 3 mps 653 mmHg 67%
    07:00 +25°C° 0 mm 3 mps 654 mmHg 55%
    08:00 +28°C° 0 mm 4 mps 655 mmHg 43%
    09:00 +30°C° 0 mm 3 mps 655 mmHg 36%
    10:00 +33°C° 0 mm 3 mps 655 mmHg 28%
    11:00 +36°C° 0 mm 3 mps 655 mmHg 21%
    12:00 +37°C° 0 mm 3 mps 655 mmHg 19%
    13:00 +38°C° 0 mm 3 mps 654 mmHg 16%
    14:00 +39°C° 0 mm 2 mps 653 mmHg 14%
    15:00 +38°C° 0 mm 3 mps 653 mmHg 15%
    16:00 +38°C° 0 mm 3 mps 652 mmHg 15%
    17:00 +37°C° 0 mm 4 mps 652 mmHg 15%
    18:00 +34°C° 0 mm 3 mps 652 mmHg 20%
    19:00 +31°C° 0 mm 3 mps 652 mmHg 24%
    20:00 +28°C° 0 mm 3 mps 652 mmHg 28%
    21:00 +28°C° 0 mm 3 mps 652 mmHg 32%
    22:00 +27°C° 0 mm 3 mps 652 mmHg 35%
    23:00 +26°C° 0 mm 3 mps 653 mmHg 39%
    Show more